Regional Weather Roundup
Issued by NWS Little Rock, AR

Home | Current Version | Previous Version | Text Only | Print | Product List | Glossary On
Versions: 1 2 3 4 5 6 7 8 9 10 11 12 13 14 15 16 17 18 19 20 21 22 23 24 25 26 27 28 29 30 31 32 33 34 35 36 37 38 39 40 41 42 43 44 45 46 47 48 49 50
000
ASUS44 KLZK 230612
RWRLZK

WEATHER ROUNDUP FOR ARKANSAS
NATIONAL WEATHER SERVICE LITTLE ROCK AR
1200 AM CST THU NOV 23 2017

NOTE: "FAIR" INDICATES FEW OR NO CLOUDS BELOW 12,000 FEET WITH NO
SIGNIFICANT WEATHER AND/OR OBSTRUCTIONS TO VISIBILITY.

ARZ001-003-010-029-230700-
NORTHWEST ARKANSAS

CITY           SKY/WX    TMP DP  RH WIND       PRES   REMARKS
FAYETTEVILLE   CLOUDY    26  24  92 S3        30.22F
6HR MIN TEMP:  26; 6HR MAX TEMP:  34;

FORT SMITH     CLOUDY    35  27  72 CALM      30.25F
6HR MIN TEMP:  35; 6HR MAX TEMP:  46;

HARRISON       PTCLDY    34  16  47 S5        30.20F WCI  30
6HR MIN TEMP:  30; 6HR MAX TEMP:  41;

BENTONVILLE    CLOUDY    31  23  72 CALM      30.23F
6HR MIN TEMP:  31; 6HR MAX TEMP:  41;

ROGERS         CLOUDY    32  22  66 S5        30.22F WCI  27
6HR MIN TEMP:  31; 6HR MAX TEMP:  41;

SILOAM SPGS    CLOUDY    29  23  78 S3        30.22F
6HR MIN TEMP:  28; 6HR MAX TEMP:  41;

HIGHFILL       CLOUDY    30  22  72 SW6       30.21F WCI  24
6HR MIN TEMP:  29; 6HR MAX TEMP:  39;

$$

ARZ004-005-016-230700-
NORTH CENTRAL ARKANSAS

CITY           SKY/WX    TMP DP  RH WIND       PRES   REMARKS
BATESVILLE     PTCLDY    31  25  78 CALM      30.25F
6HR MIN TEMP:  29; 6HR MAX TEMP:  41;

FLIPPIN        PTCLDY    29  21  72 CALM      30.23F
6HR MIN TEMP:  27; 6HR MAX TEMP:  38;

MTN HOME       PTCLDY    32  20  61 SW5       30.20F WCI  27
6HR MIN TEMP:  30; 6HR MAX TEMP:  39;

$$

ARZ040-041-230700-
WEST CENTRAL ARKANSAS

CITY           SKY/WX    TMP DP  RH WIND       PRES   REMARKS
MENA           NOT AVBL
MOUNT IDA      CLOUDY    28  25  88 CALM      30.22F
6HR MIN TEMP:  28; 6HR MAX TEMP:  42;

$$

ARZ009-017-025-026-028-230700-
NORTHEAST ARKANSAS

CITY           SKY/WX    TMP DP  RH WIND       PRES   REMARKS
CORNING        FAIR      30  27  86 CALM      30.25F
JONESBORO      PTCLDY    31  25  78 CALM      30.26F
6HR MIN TEMP:  28; 6HR MAX TEMP:  36;

NEWPORT        PTCLDY    30  25  81 NW3       30.27F
6HR MIN TEMP:  28; 6HR MAX TEMP:  36;

WALNUT RIDGE     N/A     32  26  78 CALM      30.26F
6HR MIN TEMP:  29; 6HR MAX TEMP:  37;

BLYTHEVILLE    CLOUDY    27  24  89 NW5       30.26F WCI  22
6HR MIN TEMP:  26; 6HR MAX TEMP:  33;

$$

ARZ022-023-033-042-044-230700-
CENTRAL ARKANSAS

CITY           SKY/WX    TMP DP  RH WIND       PRES   REMARKS
LITTLE ROCK    CLOUDY    31  26  82 CALM      30.28F
6HR MIN TEMP:  30; 6HR MAX TEMP:  45;

N LITTLE ROCK    N/A     33  22  64 CALM      30.29F
6HR MIN TEMP:  33; 6HR MAX TEMP:  44;

JACKSONVILLE   PTCLDY    28  22  78 CALM      30.26F
6HR MIN TEMP:  27; 6HR MAX TEMP:  38;

SEARCY         PTCLDY    26  26 100 CALM      30.28F
6HR MIN TEMP:  26; 6HR MAX TEMP:  41;

HOT SPRINGS    CLOUDY    32  26  78 CALM      30.26F
6HR MIN TEMP:  28; 6HR MAX TEMP:  47;

RUSSELLVILLE   CLEAR     28  26  92 CALM      30.25F
6HR MIN TEMP:  27; 6HR MAX TEMP:  38;

$$

ARZ036-230700-
EAST ARKANSAS

CITY           SKY/WX    TMP DP  RH WIND       PRES   REMARKS
WEST MEMPHIS   CLOUDY    29  25  85 CALM      30.24F
6HR MIN TEMP:  28; 6HR MAX TEMP:  39;

$$

ARZ050-053-066-070-073-230700-
SOUTHWEST ARKANSAS

CITY           SKY/WX    TMP DP  RH WIND       PRES   REMARKS
ARKADELPHIA    FAIR      24  21  88 CALM      30.29F
6HR MIN TEMP:  24; 6HR MAX TEMP:  41;

CAMDEN         CLOUDY    27  25  93 CALM      30.28S
TEXARKANA      CLOUDY    33  30  88 NE3       30.27S
6HR MIN TEMP:  33; 6HR MAX TEMP:  48;

EL DORADO      CLOUDY    31  28  89 N3        30.26S
6HR MIN TEMP:  30; 6HR MAX TEMP:  44;

DE QUEEN       CLOUDY    31  28  89 CALM      30.25F
6HR MIN TEMP:  29; 6HR MAX TEMP:  46;

$$

ARZ056-057-069-230700-
SOUTHEAST ARKANSAS

CITY           SKY/WX    TMP DP  RH WIND       PRES   REMARKS
PINE BLUFF     CLOUDY    27  23  85 CALM      30.27F
6HR MIN TEMP:  26; 6HR MAX TEMP:  42;

STUTTGART      PTCLDY    30  25  81 N6        30.27F WCI  24
6HR MIN TEMP:  29; 6HR MAX TEMP:  37;

MONTICELLO     CLOUDY    29  24  82 NW3       30.26S
6HR MIN TEMP:  28; 6HR MAX TEMP:  43;


$$





USA.gov is the U.S. government's official web portal to all federal, state and local government web resources and services.